Location: Larkspur
(54.4391°N, 113.7691°W)
Time: 22:31:34
(UTC+00:00)

METEOR M2 - Pass Details

Date: 05 December 2023
Orbit: 819 x 826 km, 98.4° (Epoch: 04 March)

Event Time Altitude Azimuth Distance (km) Brightness Sun altitude
Rises 01:12:17 0° 190° (S) 3,354 ? -16.1°
Reaches altitude 10° 01:14:49 10° 199° (SSW) 2,426 ? -16.5°
Maximum altitude 01:19:44 36° 265° (W) 1,296 ? -17.2°
Drops below altitude 10° 01:24:42 10° 331° (NNW) 2,440 ? -17.9°
Sets 01:27:16 0° 340° (NNW) 3,377 ? -18.3°
